This is the latest recevied weather packets stored in our database for station/object KD5GAT-51. If no packets are shown the sender has not sent any weather packets the latest 1 day(s).
| Time | Temp. | Humidity | Pressure | Rain* | Wind** | Luminosity | Snow |
|---|---|---|---|---|---|---|---|
| 1778053242 | 24.44° C | 100% | 1010.5 hPa | - | - | - | - |
| 1778052342 | 24.44° C | 100% | 1010.6 hPa | - | - | - | - |
| 1778051441 | 24.44° C | 100% | 1010.8 hPa | - | - | - | - |
| 1778050541 | 24.44° C | 100% | 1010.7 hPa | - | - | - | - |
| 1778048741 | 24.44° C | 100% | 1010.8 hPa | - | - | - | - |
| 1778047841 | 24.44° C | 100% | 1010.7 hPa | - | - | - | - |
| 1778046941 | 24.44° C | 100% | 1010.8 hPa | - | - | - | - |
| 1778045140 | 24.44° C | 100% | 1010.7 hPa | - | - | - | - |
| 1778044240 | 24.44° C | 100% | 1010.7 hPa | - | - | - | - |
| 1778043340 | 24.44° C | 100% | 1010.6 hPa | - | - | - | - |
| 1778042440 | 24.44° C | 100% | 1010.6 hPa | - | - | - | - |
| 1778041540 | 25° C | 100% | 1010.6 hPa | - | - | - | - |
| 1778039739 | 25.56° C | 100% | 1010.4 hPa | - | - | - | - |
| 1778038839 | 25.56° C | 100% | 1010.2 hPa | - | - | - | - |
| 1778037939 | 25.56° C | 100% | 1010.1 hPa | - | - | - | - |
| 1778037039 | 26.11° C | 100% | 1010 hPa | - | - | - | - |
| 1778036139 | 26.67° C | 100% | 1009.6 hPa | - | - | - | - |
| 1778034338 | 27.22° C | 100% | 1009.4 hPa | - | - | - | - |
| 1778033438 | 27.78° C | 100% | 1009.3 hPa | - | - | - | - |
| 1778032538 | 27.78° C | 100% | 1008.7 hPa | - | - | - | - |
| 1778031638 | 28.33° C | 99% | 1008.6 hPa | - | - | - | - |
| 1778030738 | 28.89° C | 95% | 1008.5 hPa | - | - | - | - |
| 1778029837 | 29.44° C | 88% | 1008.2 hPa | - | - | - | - |
| 1778028937 | 29.44° C | 85% | 1007.9 hPa | - | - | - | - |
| 1778028037 | 30° C | 80% | 1007.9 hPa | - | - | - | - |
* Rain since midnight (hover to see other rain measurements)
** Current wind speed in m/s (hover to see current wind gust speed)